Location: Artiguedieu
(43.5000°N, 0.5454°E)
Time: 22:55:28
(UTC+00:00)

Vanguard 3 - All Passes

Search period start: 28 July 2021 00:00
Search period end: 07 August 2021 00:00
Orbit: 508 x 3261 km, 33.4° (Epoch: 28 July)

Date Brightness Start Highest point End Pass type
(mag) Time Alt. Az. Time Alt. Az. Time Alt. Az.
28 Jul - 00:22:18 10° W 00:38:52 38° SW 00:50:48 10° SSE visible
28 Jul - 02:45:01 10° WSW 02:50:08 12° SW 02:54:37 10° SW visible
28 Jul - 16:26:52 10° S 16:38:20 27° SE 16:52:39 10° E daylight
28 Jul - 18:35:54 10° SW 18:51:54 51° SSE 19:10:26 10° E daylight
28 Jul - 20:48:59 10° WSW 21:07:43 62° S 21:25:12 10° ESE visible
28 Jul - 23:04:39 10° W 23:23:13 50° SSW 23:37:29 10° SE visible
29 Jul - 01:23:17 10° W 01:36:03 24° SW 01:45:46 10° S visible
29 Jul - 15:16:47 10° SSE 15:23:48 15° SE 15:32:04 10° E daylight
29 Jul - 17:22:06 10° SSW 17:35:49 41° SSE 17:53:17 10° E daylight
29 Jul - 19:33:27 10° WSW 19:50:43 60° S 20:09:27 10° E visible
29 Jul - 21:47:47 10° W 22:06:46 58° SSW 22:23:11 10° ESE visible
30 Jul - 00:04:33 10° W 00:21:09 37° SW 00:33:47 10° SSE visible
30 Jul - 02:28:52 10° WSW 02:32:34 11° SW 02:35:58 10° SW visible
30 Jul - 16:09:33 10° S 16:20:34 29° SE 16:35:06 10° E daylight
30 Jul - 18:18:47 10° SW 18:34:02 53° SSE 18:52:54 10° E daylight
30 Jul - 20:31:40 10° WSW 20:49:51 61° S 21:08:01 10° ESE visible
30 Jul - 22:47:01 10° W 23:05:24 48° SSW 23:20:25 10° SE visible
31 Jul - 01:05:47 10° W 01:18:20 23° SW 01:28:23 10° S visible
31 Jul - 14:58:59 10° SSE 15:06:10 17° SE 15:15:01 10° E daylight
31 Jul - 17:05:03 10° SW 17:18:02 43° SSE 17:35:35 10° E daylight
31 Jul - 19:16:20 10° WSW 19:32:51 60° S 19:52:01 10° E visible
31 Jul - 21:30:22 10° W 21:48:53 56° SSW 22:06:01 10° SE visible
31 Jul - 23:46:56 10° W 00:03:20 35° SW 00:16:33 10° SSE visible
01 Aug - 15:52:26 10° SSW 16:02:54 30° SE 16:17:24 10° E daylight
01 Aug - 18:01:50 10° SW 18:16:15 55° SSE 18:35:14 10° E daylight
01 Aug - 20:14:30 10° W 20:31:58 61° S 20:50:40 10° ESE visible
01 Aug - 22:29:32 10° W 22:47:30 46° SSW 23:03:11 10° SE visible
02 Aug - 00:48:29 10° W 01:00:33 21° SW 01:10:41 10° S visible
02 Aug - 14:41:31 10° SSE 14:48:37 18° SE 14:57:44 10° E daylight
02 Aug - 16:48:10 10° SW 17:00:21 44° SSE 17:17:47 10° E daylight
02 Aug - 18:59:23 10° WSW 19:15:03 61° S 19:34:26 10° ESE daylight
02 Aug - 21:13:06 10° W 21:30:59 54° SSW 21:48:41 10° SE visible
02 Aug - 23:29:30 10° W 23:45:27 32° SW 23:59:05 10° SSE visible
03 Aug - 15:35:30 10° SSW 15:45:20 32° SE 15:59:36 10° E daylight
03 Aug - 17:45:02 10° WSW 17:58:34 56° SSE 18:17:28 10° E daylight
03 Aug - 19:57:28 10° W 20:14:07 60° S 20:33:10 10° ESE visible
03 Aug - 22:12:11 10° W 22:29:33 43° SSW 22:45:45 10° SE visible
04 Aug - 00:31:28 10° W 00:42:43 19° SW 00:52:38 10° SSW visible
04 Aug - 14:24:21 10° S 14:31:11 19° SE 14:40:17 10° E daylight
04 Aug - 16:31:26 10° SW 16:42:48 46° SSE 16:59:52 10° E daylight
04 Aug - 18:42:34 10° WSW 18:57:19 60° S 19:16:44 10° ESE daylight
04 Aug - 20:55:58 10° W 21:13:04 52° SSW 21:31:09 10° SE visible
04 Aug - 23:12:14 10° W 23:27:30 30° SW 23:41:22 10° SSE visible
05 Aug - 15:18:46 10° SSW 15:27:55 33° SE 15:41:44 10° E daylight
05 Aug - 17:28:21 10° WSW 17:40:59 56° SSE 17:59:36 10° E daylight
05 Aug - 19:40:34 10° W 19:56:19 58° S 20:15:29 10° ESE visible
05 Aug - 21:55:02 10° W 22:11:36 40° SSW 22:28:05 10° SSE visible
06 Aug - 00:14:50 10° W 00:24:51 16° SW 00:34:06 10° SSW visible
06 Aug - 14:07:24 10° S 14:13:53 20° SE 14:22:45 10° E daylight
06 Aug - 16:14:52 10° SW 16:25:23 47° SSE 16:41:55 10° E daylight
06 Aug - 18:25:52 10° WSW 18:39:41 59° S 18:58:54 10° ESE daylight
06 Aug - 20:38:59 10° W 20:55:11 49° SSW 21:13:26 10° SE visible
06 Aug - 22:55:11 10° W 23:09:34 27° SW 23:23:22 10° S visible
